Date,TemperatureHighF,TemperatureAvgF,TemperatureLowF,DewpointHighF,DewpointAvgF,DewpointLowF,HumidityHigh,HumidityAvg,HumidityLow,PressureMaxIn,PressureMinIn,WindSpeedMaxMPH,WindSpeedAvgMPH,GustSpeedMaxMPH,PrecipitationSumIn
2012-1-1,67,46,31,12,9,6,42,25,10,30.43,30.29,8,4,10,0.00
2012-1-2,67,47,30,11,9,7,39,24,10,30.43,30.30,9,4,11,0.00
2012-1-3,67,48,32,13,11,9,40,24,11,30.41,30.31,9,4,10,0.00
2012-1-4,72,49,33,15,13,11,42,26,11,30.50,30.35,9,5,10,0.00
2012-1-5,70,49,34,15,14,12,42,26,12,30.38,30.11,7,4,11,0.00
2012-1-6,68,47,32,17,15,13,49,30,13,30.15,29.97,7,3,10,0.00
2012-1-7,64,49,31,18,12,1,50,25,10,30.23,29.99,21,9,29,0.00
2012-1-8,62,51,35,10,7,6,34,18,11,30.32,30.22,19,7,27,0.00
2012-1-9,64,51,31,18,14,8,39,24,14,30.37,30.23,9,4,12,0.00
2012-1-10,62,45,30,21,18,15,56,36,19,30.24,30.10,8,4,10,0.00
2012-1-11,64,45,33,21,16,10,55,34,15,30.21,30.09,8,5,11,0.00
2012-1-12,61,42,28,12,7,1,47,26,10,30.24,30.13,8,5,12,0.00
2012-1-13,63,41,27,6,2,-3,32,21,8,30.37,30.24,9,5,12,0.00
2012-1-14,44,32,24,3,-1,-3,30,24,18,30.31,30.12,9,5,13,0.00
2012-1-15,65,46,25,13,1,-3,29,17,8,30.12,29.91,23,10,36,0.00
2012-1-16,59,47,32,24,17,11,50,32,15,30.17,29.93,27,13,42,0.00
2012-1-17,53,36,22,16,12,7,63,40,19,30.32,30.16,8,3,11,0.00
2012-1-18,54,36,24,12,9,4,49,34,17,30.34,30.19,6,4,9,0.00
2012-1-19,68,49,25,25,4,-8,40,19,5,30.19,29.88,21,7,37,0.00
2012-1-20,67,57,38,46,23,9,58,29,17,30.09,29.88,23,6,36,0.00
2012-1-21,61,52,36,48,34,19,81,53,31,30.07,29.73,31,18,47,0.14
2012-1-22,52,42,34,28,24,22,68,51,30,30.18,30.02,13,4,20,0.00
2012-1-23,56,46,39,43,34,26,85,64,45,30.04,29.78,23,8,31,0.20
2012-1-24,61,47,36,34,31,24,85,57,26,30.38,30.03,17,4,17,0.01
2012-1-25,40,36,34,33,30,29,83,80,75,30.39,30.35,5,4,6,0.00
2012-1-28,61,54,37,17,9,3,35,18,10,30.47,30.36,8,4,11,0.00
2012-1-29,65,46,29,17,12,6,51,29,10,30.41,30.16,9,4,10,0.00
2012-1-30,61,51,29,19,13,7,49,24,12,30.16,29.98,9,3,15,0.00
2012-1-31,67,55,42,29,17,8,48,24,11,30.17,29.96,10,3,16,0.00
2012-2-1,68,56,47,32,25,15,52,32,16,30.18,29.98,21,8,32,0.00
2012-2-2,62,47,32,28,16,6,73,34,13,30.14,30.02,9,4,13,0.00
2012-2-3,57,45,29,14,9,6,40,24,15,30.20,30.09,13,7,20,0.00
2012-2-4,59,42,25,18,14,10,55,35,17,30.22,30.12,9,4,16,0.00
2012-2-5,61,45,26,17,15,10,61,33,16,30.22,30.09,12,6,16,0.00
2012-2-6,59,44,27,17,14,12,53,32,17,30.17,30.05,7,4,9,0.00
2012-2-7,57,46,40,40,24,13,87,47,17,30.15,29.98,18,4,24,0.06
2012-2-8,66,50,38,38,34,29,84,59,26,30.29,30.13,14,4,18,0.02
2012-2-9,74,53,35,32,27,20,71,43,13,30.32,30.19,8,4,11,0.00
2012-2-10,77,64,38,28,23,17,65,23,11,30.21,29.94,20,11,31,0.00
2012-2-11,65,57,45,35,30,24,52,36,25,29.96,29.80,22,9,32,0.00
2012-2-12,65,53,41,31,28,24,61,40,22,29.97,29.84,13,5,21,0.00
2012-2-13,54,50,44,35,24,12,54,38,21,29.87,29.72,31,14,50,0.00
2012-2-14,63,48,34,27,23,18,58,38,20,29.97,29.80,20,6,28,0.00
2012-2-15,53,44,32,34,24,15,75,46,25,30.06,29.86,33,14,40,0.01
2012-2-16,61,51,39,19,16,10,36,25,15,30.22,30.06,28,17,37,0.00
2012-2-17,55,39,29,21,13,7,51,36,14,30.24,30.11,8,5,10,0.00
2012-2-18,65,51,33,30,20,11,53,31,17,30.13,29.88,25,7,30,0.00
2012-2-19,62,52,41,29,21,13,47,31,17,30.04,29.88,25,9,29,0.00
2012-2-20,58,44,35,24,21,14,60,42,21,30.18,30.03,9,3,11,0.00
2012-2-21,67,50,30,23,21,18,65,35,17,30.27,30.18,7,4,12,0.00
2012-2-22,80,60,40,31,25,18,60,31,11,30.27,29.99,11,5,16,0.00
2012-2-23,49,46,43,30,26,22,49,46,36,30.02,29.95,7,4,11,0.00
2012-2-24,73,61,38,24,12,5,37,17,7,30.24,30.07,16,5,24,0.00
2012-2-25,77,64,53,29,21,-9,33,20,8,30.09,29.90,25,9,33,0.00
2012-2-26,68,56,39,12,-3,-11,32,10,4,30.04,29.78,19,6,29,0.00
2012-2-27,58,50,43,26,22,11,45,34,20,29.81,29.69,31,13,38,0.00
2012-2-28,60,47,33,22,19,13,55,34,19,30.12,29.77,25,8,31,0.00
2012-2-29,60,51,43,33,23,10,49,34,23,30.11,29.97,33,21,46,0.00
2012-3-1,64,54,43,29,20,14,45,27,15,30.05,29.85,29,15,46,0.00
2012-3-2,59,48,39,21,4,-10,41,19,6,30.37,30.05,21,9,30,0.00
2012-3-3,43,34,27,2,-3,-6,24,20,15,30.42,30.34,8,6,9,0.00
2012-3-4,76,55,33,16,10,1,28,17,9,30.35,30.11,7,4,10,0.00
2012-3-5,79,60,37,20,15,9,42,20,8,30.15,29.91,16,7,23,0.00
2012-3-6,63,54,39,30,18,-2,38,24,14,29.91,29.61,33,17,48,0.00
2012-3-7,53,40,33,2,-4,-7,25,16,8,30.22,29.85,28,14,40,0.00
2012-3-8,68,52,32,7,2,-5,26,13,7,30.40,30.22,10,5,17,0.00
2012-3-9,76,54,33,9,2,-3,23,13,5,30.40,30.10,10,4,11,0.00
2012-3-10,80,63,37,15,9,-3,34,14,6,30.09,29.85,21,8,33,0.00
2012-3-11,75,66,56,29,23,17,32,21,12,29.92,29.83,23,17,33,0.00
2012-3-12,75,60,50,32,26,11,47,29,9,29.99,29.88,26,14,35,0.00
2012-3-13,71,59,50,34,28,13,54,34,11,29.97,29.90,26,15,37,0.00
2012-3-14,76,63,53,34,30,25,46,30,16,30.06,29.95,22,13,36,0.00
2012-3-15,80,62,45,39,33,28,53,36,20,30.13,29.96,22,6,31,0.00
2012-3-16,72,63,55,41,35,29,54,36,23,29.98,29.77,26,13,35,0.00
2012-3-17,57,48,39,45,37,28,85,66,44,29.77,29.50,31,17,42,0.16
2012-3-18,53,44,36,29,20,11,74,41,19,29.76,29.53,26,15,44,0.01
2012-3-19,59,46,34,25,16,8,55,31,16,30.01,29.72,22,6,37,0.00
2012-3-20,70,52,31,31,20,-100,70,34,12,30.21,30.01,10,4,14,0.00
2012-3-21,79,60,39,33,29,23,72,37,16,30.16,29.96,15,5,19,0.00
2012-3-22,85,64,46,39,27,-100,49,27,9,29.99,29.80,24,0,37,0.00
2012-3-23,78,63,54,42,30,12,60,34,9,29.98,29.87,21,13,30,0.00
2012-3-24,76,60,40,31,22,15,40,25,11,29.97,29.80,20,8,25,0.00
2012-3-25,65,51,40,46,33,22,82,52,26,29.86,29.71,29,13,39,0.07
2012-3-26,66,52,40,33,29,23,71,44,23,30.05,29.81,23,14,33,0.03
2012-3-27,72,55,42,31,25,15,60,35,12,30.07,29.92,19,8,32,0.00
2012-3-28,72,61,52,37,31,27,42,32,21,30.01,29.91,17,9,27,0.00
2012-3-29,77,60,44,39,34,30,67,41,20,30.08,29.92,6,3,11,0.00
2012-3-30,74,58,45,39,37,35,68,47,26,30.05,29.87,15,4,21,0.00
2012-3-31,77,64,48,39,32,19,47,32,13,29.91,29.78,30,17,40,0.00
2012-4-1,67,55,45,30,19,7,56,27,14,30.09,29.83,19,9,30,0.00
2012-4-2,74,58,42,25,14,8,38,19,9,30.15,29.95,25,6,32,0.00
2012-4-3,81,71,57,29,22,16,23,16,11,30.10,29.88,17,7,24,0.00
2012-4-4,79,65,53,32,22,-4,39,22,4,29.96,29.80,27,13,35,0.00
2012-4-5,64,53,45,25,13,2,33,21,8,30.01,29.80,26,11,37,0.00
2012-4-6,64,49,32,9,0,-5,26,14,7,30.25,30.01,15,4,22,0.00
2012-4-7,76,52,30,1,-3,-8,22,12,4,30.22,30.06,9,4,12,0.00
2012-4-8,86,74,56,13,2,-6,14,7,3,30.14,29.98,15,7,21,0.00
2012-4-9,85,66,45,11,5,0,23,10,4,30.06,29.89,18,7,27,0.00
2012-4-10,81,65,44,17,4,-10,17,9,3,29.94,29.71,26,10,35,0.00
2012-4-11,65,55,49,36,30,13,58,39,16,29.98,29.75,32,17,40,0.00
2012-4-12,69,55,47,32,25,15,44,32,15,30.04,29.93,27,14,40,0.00
2012-4-13,55,48,42,41,34,24,85,59,35,29.98,29.58,32,14,40,0.19
2012-4-14,64,52,44,32,25,-100,49,36,23,30.03,29.60,19,9,30,0.19
2012-4-15,75,65,49,36,29,23,51,28,14,30.17,30.02,17,5,27,0.00
2012-4-16,81,63,42,36,30,22,71,36,11,30.24,30.06,15,5,21,0.00
2012-4-17,85,68,51,37,31,23,57,29,13,30.13,29.96,19,5,25,0.00
2012-4-18,89,71,55,40,33,24,43,26,14,30.01,29.83,12,4,21,0.00
2012-4-19,92,74,55,44,37,26,57,30,11,30.08,29.93,7,4,14,0.00
2012-4-20,94,79,59,44,36,32,48,25,12,30.13,29.96,16,5,20,0.00
2012-4-21,99,81,60,39,35,24,44,23,8,30.06,29.90,11,4,18,0.00
2012-4-22,100,83,63,43,34,24,37,20,7,30.01,29.85,13,5,25,0.00
2012-4-23,96,80,62,50,41,31,52,28,11,29.95,29.79,20,8,28,0.00
2012-4-24,90,73,57,50,43,30,70,39,14,30.02,29.88,17,7,24,0.00
2012-4-25,86,76,63,44,37,27,48,25,17,30.00,29.79,25,11,31,0.00
2012-4-26,71,63,54,51,42,28,83,50,27,29.93,29.80,38,14,57,0.08
2012-4-27,82,66,46,36,32,26,59,30,13,30.13,29.93,14,4,24,0.00
2012-4-28,86,69,53,37,28,-100,51,26,9,30.01,29.80,14,5,19,0.00
2012-4-29,90,73,52,35,27,17,44,21,8,29.98,29.85,19,6,24,0.00
2012-4-30,93,76,56,34,29,17,36,19,7,29.98,29.77,26,7,34,0.00
2012-5-1,91,80,72,36,30,23,27,17,10,29.78,29.62,36,9,46,0.00
2012-5-2,90,74,55,39,32,23,50,24,9,29.85,29.68,17,6,30,0.00
2012-5-3,85,70,57,36,30,24,34,24,13,29.95,29.79,24,9,44,0.00
2012-5-4,87,71,59,34,27,17,34,20,10,30.01,29.87,22,7,31,0.00
2012-5-5,81,68,55,29,17,-100,28,16,6,30.10,29.94,27,8,34,0.00
2012-5-6,61,61,61,27,27,27,27,27,27,29.99,29.99,2,2,3,0.00
2012-5-10,77,76,74,27,26,22,16,15,13,29.78,29.75,19,8,28,0.00
2012-5-11,96,80,62,28,22,16,24,13,6,29.94,29.78,19,6,26,0.00
2012-5-12,91,73,57,32,24,-100,29,18,6,30.07,29.92,15,4,20,0.00
2012-5-13,100,82,58,35,23,9,33,15,4,30.11,29.94,14,5,22,0.00
2012-5-14,97,81,67,37,20,-19,28,14,1,30.05,29.85,25,11,33,0.00
2012-5-15,94,83,65,31,13,-9,21,9,2,29.93,29.83,13,4,23,0.00
2012-5-17,85,78,75,27,25,20,16,14,9,29.75,29.72,21,15,35,0.00
2012-5-18,91,80,69,34,25,16,23,14,7,29.87,29.78,19,7,27,0.00
2012-5-19,90,70,54,35,28,18,47,25,7,30.00,29.85,7,3,18,0.00
2012-5-20,84,82,79,33,32,30,19,17,14,29.97,29.94,9,3,13,0.00
2012-5-21,103,85,66,38,31,17,28,16,5,30.00,29.89,23,8,30,0.00
2012-5-22,103,87,74,41,32,23,24,15,6,29.93,29.70,32,10,46,0.00
2012-5-23,94,84,71,36,30,23,21,15,10,29.77,29.57,26,10,38,0.00
2012-5-24,90,76,63,34,28,18,28,18,7,29.75,29.48,31,11,44,0.00
2012-5-26,72,70,69,29,25,20,22,18,15,29.84,29.80,22,15,0,0.00
2012-5-31,95,89,80,31,27,25,14,11,9,29.87,29.85,11,4,24,0.00
2012-6-1,107,88,66,33,27,19,26,12,5,29.90,29.73,17,4,26,0.00
2012-6-2,104,89,74,42,31,-100,24,14,7,29.81,29.71,16,5,26,0.00
2012-6-3,103,87,67,44,38,24,42,20,7,29.91,29.77,13,5,22,0.00
2012-6-4,96,80,67,45,38,34,40,24,12,29.91,29.80,22,9,36,0.00
2012-6-5,84,70,58,40,23,10,39,19,7,29.92,29.80,25,11,38,0.00
2012-6-6,87,71,54,30,20,14,30,16,7,29.98,29.83,19,5,25,0.00
2012-6-7,97,78,57,34,24,14,33,17,6,29.97,29.83,18,6,26,0.00
2012-6-8,79,76,75,40,34,29,26,22,18,29.85,29.70,16,7,31,0.00
2012-6-9,98,82,68,38,30,23,25,16,8,29.76,29.65,16,5,31,0.00
2012-6-10,64,64,64,6,6,6,10,10,10,29.96,29.96,6,6,7,0.00
2012-6-11,100,88,64,27,13,3,13,7,4,30.03,29.91,15,5,19,0.00
2012-6-12,104,86,65,27,22,12,22,11,4,30.00,29.83,19,7,32,0.00
2012-6-13,102,86,64,38,25,11,22,12,4,29.86,29.70,19,6,30,0.00
2012-6-14,101,84,67,46,36,23,35,20,7,29.82,29.72,18,6,29,0.00
2012-6-15,99,85,67,45,36,23,43,21,7,29.85,29.73,12,4,25,0.00
2012-6-16,102,86,64,39,28,-100,33,15,6,29.97,29.84,17,7,24,0.00
2012-6-17,105,87,63,33,20,7,21,10,4,30.04,29.85,22,8,33,0.00
2012-6-18,104,90,80,36,28,13,19,11,4,29.89,29.68,27,16,42,0.00
2012-6-19,93,84,79,29,24,21,14,11,8,29.79,29.72,12,5,18,0.00
2012-6-20,101,91,85,38,35,25,18,14,7,29.81,29.76,14,8,20,0.00
2012-6-21,104,88,73,39,34,27,27,16,8,29.87,29.77,21,10,34,0.00
2012-6-22,96,84,72,34,25,17,21,12,6,29.81,29.70,26,11,38,0.00
2012-6-23,92,80,70,42,32,20,30,18,9,29.85,29.72,29,14,40,0.00
2012-6-24,97,79,65,42,27,-8,42,21,2,29.97,29.85,26,12,37,0.00
2012-6-25,96,79,63,39,30,17,39,20,6,30.00,29.86,27,14,35,0.00
2012-6-26,97,79,62,36,30,20,35,19,7,29.94,29.77,24,10,33,0.00
2012-6-27,99,80,62,39,28,-4,42,19,2,29.94,29.83,26,8,33,0.00
2012-6-28,103,85,69,36,28,7,29,15,3,30.06,29.94,24,10,32,0.00
2012-6-29,102,84,65,35,28,10,27,15,4,30.04,29.91,27,9,34,0.00
2012-6-30,102,84,62,40,35,28,38,19,8,29.98,29.79,16,6,30,0.00
2012-7-1,101,83,63,49,40,31,39,23,10,29.89,29.74,21,6,30,0.00
2012-7-2,101,83,63,49,42,17,53,28,5,29.91,29.79,16,5,26,0.00
2012-7-3,102,86,68,48,39,21,45,22,6,29.93,29.78,18,7,29,0.00
2012-7-4,93,83,72,54,44,39,36,26,18,29.96,29.84,18,9,27,0.00
2012-7-5,100,86,72,47,39,27,34,21,8,30.00,29.88,19,10,25,0.00
2012-7-6,97,82,69,44,38,22,37,23,7,30.06,29.95,15,5,22,0.00
2012-7-9,111,100,78,39,31,21,17,9,5,30.04,29.90,16,6,24,0.00
2012-7-10,112,96,78,41,37,34,26,14,7,30.00,29.84,18,7,29,0.00
2012-7-11,115,97,76,39,36,29,25,13,6,29.95,29.81,14,5,20,0.00
2012-7-12,107,94,85,53,40,32,30,16,10,29.98,29.83,24,8,33,0.00
2012-7-13,96,86,80,59,53,34,40,32,20,30.06,29.91,16,6,20,0.00
2012-7-14,103,87,66,51,36,21,45,19,6,30.04,29.85,21,7,28,0.00
2012-7-15,100,85,70,38,28,0,26,15,3,30.01,29.84,19,8,27,0.00
2012-7-16,98,81,63,39,24,-6,35,16,2,29.96,29.80,23,10,35,0.00
2012-7-17,95,79,63,45,34,24,38,22,9,29.97,29.87,30,10,35,0.00
2012-7-18,95,79,64,46,34,16,47,24,6,30.05,29.96,16,8,27,0.00
2012-7-19,102,87,69,42,37,31,28,18,11,30.07,29.88,20,7,29,0.00
2012-7-20,104,89,71,45,40,30,33,19,8,30.09,29.97,14,7,25,0.00
2012-7-21,107,92,72,46,42,38,33,19,11,30.06,29.89,14,6,26,0.00
2012-7-22,108,95,79,49,46,44,32,20,13,30.02,29.87,14,6,22,0.00
2012-7-23,105,93,81,50,46,41,28,21,12,30.03,29.89,24,10,35,0.00
2012-7-24,104,89,73,43,23,6,27,12,3,30.02,29.87,23,11,33,0.00
2012-7-25,105,86,65,33,18,-15,21,11,1,30.04,29.88,20,7,31,0.00
2012-7-26,102,85,65,36,25,6,24,13,3,30.01,29.89,19,7,28,0.00
2012-7-27,104,86,71,36,30,7,26,16,3,30.02,29.88,20,8,27,0.00
2012-7-28,103,85,61,35,31,21,34,16,6,30.05,29.91,15,6,21,0.00
2012-7-29,106,85,63,35,24,-1,30,14,2,30.07,29.92,11,4,18,0.00
2012-7-30,107,90,72,41,32,23,25,14,6,30.03,29.88,16,5,27,0.00
2012-7-31,101,87,69,58,46,37,42,25,14,30.11,29.95,16,5,24,0.00
2012-8-1,99,87,71,60,53,33,68,35,15,30.18,29.97,14,6,24,0.00
2012-8-2,108,92,73,49,40,33,28,17,10,30.07,29.87,15,4,22,0.00
2012-8-3,107,92,74,49,37,28,27,15,9,29.95,29.78,23,5,31,0.00
2012-8-4,104,95,83,49,44,41,24,18,13,29.97,29.90,13,8,24,0.00
2012-8-5,107,91,72,47,40,29,41,19,7,30.07,29.97,16,5,20,0.00
2012-8-6,107,92,73,45,39,30,36,18,7,30.15,29.99,14,5,22,0.00
2012-8-7,109,93,74,43,39,35,28,16,9,30.09,29.92,15,5,22,0.00
2012-8-8,111,97,81,45,42,40,25,16,10,30.06,29.91,16,7,22,0.00
2012-8-9,112,98,79,46,42,39,28,16,9,30.03,29.88,26,8,34,0.00
2012-8-10,111,98,84,48,43,40,24,16,10,29.97,29.79,17,5,32,0.00
2012-8-11,110,94,78,50,42,-100,28,19,10,29.93,29.83,24,7,33,0.00
2012-8-12,99,94,88,50,48,46,27,21,17,29.94,29.87,13,4,25,0.00
2012-8-13,109,90,78,63,51,43,53,29,12,30.01,29.88,18,4,29,0.00
2012-8-14,107,84,72,58,51,41,53,36,11,29.97,29.83,11,5,15,0.00
2012-8-15,108,92,74,47,41,27,38,20,6,29.94,29.80,18,6,27,0.00
2012-8-16,108,92,73,49,39,33,33,17,8,30.00,29.88,15,5,22,0.00
2012-8-17,104,90,82,49,43,36,31,20,12,30.05,29.91,20,8,26,0.00
2012-8-18,105,94,81,52,46,42,28,20,15,30.01,29.84,21,7,30,0.00
2012-8-19,106,92,77,52,47,43,32,22,14,30.01,29.82,15,5,27,0.00
2012-8-20,107,91,74,48,45,42,35,21,13,29.99,29.82,19,6,27,0.00
2012-8-21,106,92,79,44,40,34,28,18,10,29.96,29.82,25,8,33,0.00
2012-8-22,94,82,70,66,48,36,78,34,18,30.01,29.87,20,7,28,0.12
2012-8-23,98,82,64,63,51,40,79,42,17,30.04,29.87,8,3,18,0.02
2012-8-24,103,88,71,46,42,39,35,21,13,29.99,29.83,12,4,19,0.00
2012-8-25,103,89,75,45,41,35,30,20,11,29.92,29.78,16,7,26,0.00
2012-8-26,100,84,66,44,31,5,42,19,3,29.99,29.84,19,7,28,0.00
2012-8-27,103,84,63,29,21,12,21,12,4,30.09,29.97,16,6,23,0.00
2012-8-28,107,87,65,40,29,21,21,13,7,30.07,29.89,16,6,24,0.00
2012-8-29,106,92,81,46,42,37,23,18,12,29.97,29.85,28,8,34,0.00
2012-8-30,85,81,78,56,46,39,41,29,20,29.91,29.85,18,7,30,0.00
2012-8-31,101,85,70,54,38,26,45,22,7,29.97,29.84,23,10,33,0.00
2012-9-1,99,81,65,34,28,18,28,16,6,30.01,29.89,18,9,26,0.00
2012-9-2,92,73,58,30,27,24,28,19,9,30.06,29.97,12,4,16,0.00
2012-9-3,97,90,83,38,29,14,14,12,5,30.03,29.94,19,11,27,0.00
2012-9-4,104,90,75,40,33,25,20,14,9,30.10,29.94,19,6,25,0.00
2012-9-5,93,83,76,50,38,33,33,21,14,30.05,29.98,14,4,19,0.00
2012-9-6,100,84,71,51,48,46,48,30,16,30.01,29.91,22,7,30,0.00
2012-9-7,102,87,72,51,48,45,46,28,15,30.10,29.98,13,3,23,0.00
2012-9-8,105,88,73,52,48,46,41,26,14,30.09,29.92,22,5,28,0.00
2012-9-9,104,89,75,55,48,40,47,27,13,30.03,29.89,17,6,21,0.00
2012-9-10,102,87,74,58,49,45,39,28,16,30.00,29.83,25,7,34,0.00
2012-9-11,95,83,70,56,48,34,57,33,13,30.04,29.87,19,6,30,0.00
2012-9-12,94,79,63,55,47,38,63,36,15,30.15,30.03,12,4,17,0.00
2012-9-13,96,80,61,39,29,19,38,18,7,30.23,30.11,12,5,18,0.00
2012-9-14,99,80,59,33,25,19,23,14,8,30.22,30.09,13,5,19,0.00
2012-9-15,99,82,63,31,27,20,26,15,7,30.21,30.05,10,5,15,0.00
2012-9-16,99,83,64,33,30,24,28,16,7,30.14,29.96,19,5,26,0.00
2012-9-17,97,83,67,33,30,23,28,15,8,30.09,29.96,12,4,19,0.00
2012-9-18,91,74,63,33,30,28,28,21,11,30.13,30.02,7,3,9,0.00
2012-9-19,99,91,77,34,32,30,21,13,9,30.09,29.99,11,4,16,0.00
2012-9-20,96,76,65,36,34,31,30,22,11,30.10,30.01,6,2,7,0.00
2012-9-21,99,83,65,37,34,30,34,19,9,30.06,29.92,16,5,21,0.00
2012-9-22,92,90,86,36,36,35,16,15,14,30.04,30.02,3,2,4,0.00
2012-9-24,81,80,79,22,20,15,11,11,10,29.87,29.86,22,15,30,0.00
2012-9-25,90,77,61,32,27,15,29,17,9,29.97,29.85,10,3,15,0.00
2012-9-26,93,75,60,31,28,26,30,19,11,29.99,29.88,9,3,15,0.00
2012-9-27,93,76,58,34,30,26,31,20,12,30.06,29.93,11,4,31,0.00
2012-9-28,94,77,62,37,32,29,33,20,12,30.04,29.91,10,4,13,0.00
2012-9-29,95,78,61,36,32,23,40,21,8,30.12,29.99,9,3,16,0.00
2012-9-30,98,79,61,34,29,22,35,18,8,30.16,30.05,13,4,17,0.00
2012-10-1,101,81,64,30,26,20,26,15,6,30.15,29.98,11,4,13,0.00
2012-10-2,83,69,60,32,27,26,28,22,13,30.02,29.90,11,5,14,0.00
2012-10-3,83,77,65,38,32,26,24,19,13,29.99,29.92,16,7,28,0.00
2012-10-4,95,76,59,37,33,25,41,22,11,30.09,29.95,13,2,19,0.00
2012-10-5,93,75,58,35,31,27,34,21,10,30.09,29.93,14,4,21,0.00
2012-10-6,92,73,55,36,31,26,44,24,11,30.01,29.86,13,3,19,0.00
2012-10-7,87,70,50,40,32,27,46,26,13,30.01,29.88,12,4,17,0.00
2012-10-8,87,68,57,37,34,24,43,30,10,30.00,29.91,19,6,26,0.00
2012-10-9,82,68,53,38,31,23,54,26,15,29.99,29.89,15,6,24,0.00
2012-10-10,79,64,51,37,32,21,51,33,14,30.01,29.87,14,6,22,0.00
2012-10-11,72,61,52,41,38,32,63,43,24,29.94,29.83,27,7,38,0.00
2012-10-12,71,64,55,46,41,39,66,44,31,30.15,29.93,11,4,20,0.00
2012-10-13,79,61,45,43,39,34,75,48,24,30.28,30.13,6,3,11,0.00
2012-10-14,85,67,49,37,33,27,57,33,14,30.27,30.10,8,4,11,0.00
2012-10-15,88,68,53,35,31,27,43,27,13,30.14,29.96,8,4,12,0.00
2012-10-16,93,71,52,44,34,28,49,29,11,30.03,29.83,10,4,14,0.00
2012-10-17,89,73,54,42,32,26,48,25,13,30.04,29.89,12,4,16,0.00
2012-10-18,89,70,53,30,25,17,37,21,8,30.16,30.04,8,4,12,0.00
2012-10-19,91,71,50,46,29,21,39,24,10,30.09,29.88,11,4,15,0.00
2012-10-20,89,71,57,43,40,36,56,35,17,29.91,29.67,19,4,27,0.00
2012-10-21,82,70,60,44,36,15,54,30,14,29.82,29.71,23,8,32,0.00
2012-10-22,74,64,56,42,29,10,58,29,12,29.92,29.79,27,15,35,0.00
2012-10-23,68,59,52,41,28,22,54,32,18,29.92,29.81,27,14,38,0.00
2012-10-24,72,59,50,30,24,18,38,27,13,30.08,29.88,22,10,33,0.00
2012-10-25,70,54,38,25,21,16,49,29,16,30.19,30.08,7,2,12,0.00
2012-10-26,70,57,44,26,23,20,43,29,16,30.32,30.16,10,4,16,0.00
2012-10-28,65,60,58,22,18,16,21,19,17,30.09,30.06,10,6,13,0.00
2012-10-29,83,64,46,25,20,15,33,20,10,30.19,30.06,8,4,11,0.00
2012-10-30,84,63,45,25,19,14,34,20,9,30.16,30.01,9,4,11,0.00
2012-10-31,84,64,44,21,17,12,33,18,7,30.11,29.94,14,6,21,0.00
2012-11-1,82,68,59,34,22,12,36,19,8,30.00,29.88,23,8,31,0.00
2012-11-2,78,62,48,36,28,16,60,32,12,30.07,29.95,7,4,13,0.00
2012-11-3,81,60,44,29,23,15,45,27,11,30.19,30.03,8,4,11,0.00
2012-11-4,81,63,46,23,19,16,33,20,10,30.29,30.18,9,4,13,0.00
2012-11-5,86,72,51,28,21,12,27,16,9,30.29,30.15,9,4,14,0.00
2012-11-6,86,67,51,28,25,22,34,22,11,30.22,30.07,9,3,11,0.00
2012-11-7,86,67,48,30,26,23,40,23,11,30.11,29.88,18,6,25,0.00
2012-11-8,76,64,51,39,32,28,61,32,18,29.90,29.72,21,12,34,0.00
2012-11-9,55,49,43,35,22,5,57,35,19,29.86,29.75,22,12,33,0.00
2012-11-10,54,46,36,21,14,5,49,29,19,30.15,29.85,19,9,34,0.00
2012-11-11,55,40,26,14,10,3,51,30,18,30.42,30.15,7,3,11,0.00
2012-11-12,60,42,25,8,4,-4,43,23,10,30.42,30.25,7,4,10,0.00
2012-11-13,66,46,29,8,2,-3,28,17,8,30.32,30.16,7,4,11,0.00
2012-11-14,67,48,30,11,6,-100,33,19,11,30.24,30.11,7,4,9,0.00
2012-11-15,67,54,43,35,14,8,47,22,11,30.20,30.07,6,3,12,0.00
2012-11-16,67,57,47,45,36,30,74,47,33,30.12,30.03,14,6,19,0.00
2012-11-17,69,59,50,49,46,43,81,63,43,30.09,29.97,24,14,34,0.00
2012-11-18,70,59,51,45,37,31,77,46,25,30.12,30.00,23,13,34,0.00
2012-11-19,68,53,43,39,34,28,69,49,28,30.28,30.11,10,4,19,0.00
2012-11-20,72,54,38,35,32,28,74,47,25,30.25,30.05,14,6,20,0.00
2012-11-21,70,55,41,32,30,28,62,40,23,30.10,29.98,10,3,13,0.00
2012-11-22,71,54,40,34,28,22,72,42,20,30.28,30.10,8,4,14,0.00
2012-11-23,75,55,38,25,21,18,48,30,12,30.35,30.22,9,3,10,0.00
2012-11-25,71,58,41,25,16,12,32,21,14,30.03,29.90,8,4,10,0.00
2012-11-26,71,51,36,19,15,10,40,25,13,30.19,30.02,9,4,10,0.00
2012-11-27,67,51,37,22,17,13,43,27,15,30.24,30.11,7,4,9,0.00
2012-11-28,72,57,39,43,30,19,65,39,16,30.17,30.01,31,9,44,0.00
2012-11-29,68,60,52,46,42,38,79,53,33,30.13,30.05,22,10,32,0.00
2012-11-30,71,62,56,49,41,27,62,48,20,30.10,29.98,24,14,33,0.00
2012-12-1,68,62,55,48,41,33,65,47,34,30.09,30.00,22,14,33,0.00
2012-12-2,71,61,53,47,43,38,65,52,32,30.04,29.88,25,14,41,0.00
2012-12-3,68,58,46,45,39,29,66,50,31,30.24,30.02,18,6,25,0.00
2012-12-4,66,53,40,41,36,27,75,54,39,30.34,30.22,10,3,13,0.00
2012-12-5,63,50,39,39,34,30,77,56,36,30.22,30.03,9,2,13,0.00
2012-12-6,73,52,40,41,34,-100,74,54,28,30.06,29.92,9,3,13,0.00
2012-12-7,71,52,38,37,28,19,79,46,15,30.12,30.00,7,4,11,0.00
2012-12-8,67,49,35,27,20,13,66,38,14,30.07,29.94,7,4,10,0.00
2012-12-9,67,49,36,21,17,14,49,30,15,30.25,30.01,11,5,14,0.00
2012-12-10,66,49,34,23,19,15,50,32,19,30.32,30.14,9,3,12,0.00
2012-12-11,57,54,51,22,21,19,29,26,25,29.92,29.88,18,10,22,0.00
2012-12-12,62,53,46,38,30,21,67,44,22,29.88,29.76,29,13,40,0.00
2012-12-13,55,47,41,40,36,32,87,68,46,29.82,29.72,14,6,18,0.01
2012-12-14,52,42,31,37,26,21,87,55,30,29.90,29.69,23,7,33,0.00
2012-12-15,54,42,27,27,20,16,73,44,22,30.02,29.87,17,4,27,0.00
2012-12-16,52,39,26,25,22,17,68,52,34,30.12,30.01,6,3,10,0.00
2012-12-17,64,46,28,38,29,20,84,57,28,30.08,29.88,29,8,43,0.00
2012-12-18,53,48,37,39,24,3,71,41,20,29.97,29.68,30,15,42,0.00
2012-12-19,47,37,24,8,0,-8,34,22,12,30.40,29.97,16,7,25,0.00
2012-12-20,47,30,16,2,-4,-8,37,24,13,30.40,30.22,7,4,11,0.00
2012-12-21,49,31,16,6,1,-5,46,29,16,30.23,30.08,7,4,10,0.00
2012-12-22,58,41,23,37,17,3,61,40,17,30.13,30.01,17,6,25,0.00
2012-12-23,59,51,42,39,33,27,70,50,30,30.08,29.96,27,13,39,0.00
2012-12-24,63,52,37,43,29,16,81,43,19,30.17,29.89,22,10,37,0.06
2012-12-25,50,40,28,23,16,6,70,43,16,30.21,30.00,11,5,15,0.01
2012-12-26,55,47,37,34,25,15,76,43,21,29.90,29.77,25,10,41,0.00
2012-12-27,52,42,32,25,18,11,67,40,21,30.14,29.89,17,7,23,0.00
2012-12-28,50,38,21,18,14,11,68,40,23,30.24,30.10,7,3,13,0.00
2012-12-29,48,37,24,32,20,12,70,52,29,30.11,29.97,9,4,13,0.00
2012-12-30,47,37,24,26,21,11,84,54,31,30.07,29.92,24,8,35,0.00
2012-12-31,51,38,22,15,10,6,60,33,17,30.26,30.07,24,6,31,0.00
2013-1-1,48,35,25,15,9,1,61,37,19,30.32,30.21,11,4,15,0.00